Wind_Speed
4 3 3 3 4 3 2 4 5 6 8 8 7 7 5 4 5 5 3 3 3 2 1 3 5 4 3 2 2 2 2 2 0 2 1 1 2 1 2 3 4 5 7
3 4 5 3 3 2 0 2 5 7 7 8 9 8 8 7 5 5 6 7 3 3 3 2 2 2 4 3 3 3 3 3 3 3 2 2 1 2 1 2 4 5 6
1 1 1 4 2 0 1 1 2 3 6 8 9 9 10 10 9 7 5 8 8 6 5 5 4 3 2 3 3 4 4 5 5 4 4 4 4 4 3 3 4 4 5
3 3 4 3 2 2 3 2 2 3 4 5 9 11 12 12 11 10 9 9 9 10 9 7 7 6 6 5 5 5 5 6 6 6 6 6 7 6 6 6 6 6 5
7 7 7 5 5 6 5 5 5 4 5 5 6 8 12 13 13 13 13 11 12 11 11 11 10 9 9 8 8 8 8 8 8 8 8 8 8 8 8 7 7 6 7
10 10 10 9 8 8 9 9 9 7 6 6 7 8 9 11 14 15 15 15 15 14 13 13 13 13 12 11 11 11 11 12 11 10 11 10 10 10 10 9 9 9 8
13 13 12 12 12 12 13 13 13 13 10 11 9 8 9 11 11 13 15 16 16 17 18 16 15 14 14 14 14 14 14 14 15 15 15 13 13 13 13 12 11 10 10
17 17 17 17 17 16 16 16 16 17 17 15 13 13 13 13 13 13 14 14 16 19 19 20 20 19 18 17 17 18 17 16 17 18 18 18 17 16 15 13 13 12 12
21 20 20 20 20 20 19 19 19 19 19 19 18 17 18 18 16 16 16 16 16 17 19 21 21 21 22 22 22 21 21 21 21 20 20 21 20 20 19 17 16 15 15
24 24 23 23 23 23 22 23 23 23 22 23 22 21 20 20 22 20 20 20 18 17 18 19 21 22 22 21 22 23 25 26 25 25 24 23 23 23 22 21 20 19 18
29 29 28 27 27 26 26 26 26 26 26 25 25 25 25 24 24 25 24 25 24 21 19 19 19 19 20 20 19 19 21 25 29 30 29 27 26 24 24 24 23 22 20
33 33 33 33 32 32 32 32 32 32 31 31 29 29 28 27 27 29 29 29 28 26 24 22 23 23 23 22 22 23 25 25 27 31 31 31 28 26 25 24 24 23 22
32 32 32 33 33 33 33 34 34 35 34 35 35 34 34 33 32 31 33 33 33 31 29 28 27 27 26 28 26 26 25 25 23 25 31 32 31 29 26 24 23 23 22
23 22 22 24 24 25 25 26 27 28 29 29 31 33 35 37 38 37 36 37 37 36 35 33 32 30 31 30 31 30 30 28 28 28 27 32 33 31 30 27 25 24 23
27 27 28 28 29 30 31 32 32 33 33 34 35 36 36 37 37 38 39 41 41 40 39 40 39 36 35 34 33 34 33 32 32 30 29 29 33 33 32 31 30 28 26
31 32 33 33 34 35 36 36 37 38 40 41 41 41 41 42 42 42 41 40 43 45 44 43 43 43 41 39 37 37 37 35 34 33 31 28 30 34 34 32 30 29 30
35 37 38 40 40 40 41 42 43 44 45 46 48 48 48 47 47 47 46 46 45 44 45 48 47 46 46 45 42 41 41 39 38 37 34 32 32 32 35 35 32 31 31
39 41 42 43 45 46 47 48 49 50 51 52 52 52 53 54 54 53 52 52 51 49 48 47 48 51 50 48 47 46 44 44 40 39 41 38 35 34 34 34 35 33 31
43 45 46 47 48 50 51 52 54 54 55 56 57 58 57 57 57 57 57 58 57 56 53 52 52 50 51 52 52 50 48 48 45 44 45 44 41 36 32 32 33 34 32
46 47 48 50 51 52 53 54 56 56 57 59 62 65 65 65 63 62 61 61 62 62 60 57 56 55 53 51 53 54 53 51 50 48 48 47 50 42 37 31 35 33 32
50 50 51 51 51 53 54 56 57 59 60 60 60 60 62 64 65 66 66 65 65 65 65 64 61 59 57 56 55 54 56 56 55 51 53 49 37 51 45 32 35 36 36
52 53 54 54 54 55 56 54 53 52 52 54 56 58 61 64 66 68 69 70 69 69 68 68 68 64 61 60 58 57 56 56 58 55 58 51 52 43 43 41 32 39 41
53 52 50 50 49 48 48 47 48 50 53 56 60 62 64 68 72 75 76 75 74 74 72 71 70 69 67 63 61 60 59 58 57 57 57 58 53 50 47 45 42 42 41
46 44 43 44 44 45 46 47 50 53 50 46 49 55 59 64 65 66 72 74 74 77 76 72 69 70 69 67 65 63 61 60 59 58 55 59 57 54 50 49 53 45 48
42 42 43 44 45 46 49 50 44 38 38 43 53 63 61 62 64 64 68 67 65 66 72 73 71 68 67 68 67 66 65 63 62 62 57 54 55 54 54 53 54 54 53
41 42 45 48 46 38 33 35 32 30 36 41 38 44 51 51 50 56 54 62 68 70 64 70 70 70 66 65 67 67 67 65 63 64 63 60 57 54 50 53 55 56 56
Wind_Direction
66 69 107 203 235 230 243 250 244 240 250 254 247 242 246 252 248 267 295 280 260 258 11 15 28 5 297 276 264 296 330 313 149 177 181 153 125 111 60 27 34 33 34
56 66 74 109 196 256 34 260 258 252 247 249 249 246 242 242 246 258 262 267 315 272 279 295 350 15 341 312 279 257 285 289 287 268 229 198 248 271 316 339 3 13 17
342 358 75 102 121 208 23 10 310 277 259 253 257 256 253 247 243 246 253 258 256 277 277 270 272 277 293 311 304 281 273 282 280 273 280 275 257 274 297 315 338 344 353
270 284 286 285 345 351 327 5 343 341 323 280 259 259 260 258 254 250 251 247 258 259 266 275 267 261 262 267 273 279 277 276 279 283 281 282 288 291 297 306 319 325 336
268 268 281 290 311 315 315 317 328 322 314 313 304 274 263 261 262 262 258 253 256 258 257 260 265 267 259 257 260 264 268 273 280 285 284 284 285 290 293 294 297 302 311
269 273 280 290 294 298 303 305 299 294 296 301 304 306 299 278 269 268 266 266 263 260 262 260 256 257 264 263 261 261 261 264 265 271 278 282 283 284 284 285 290 297 298
271 275 278 282 286 289 295 296 296 291 294 302 301 296 302 303 297 280 271 265 262 265 265 264 265 265 264 264 265 265 263 263 264 263 263 266 271 276 278 282 283 282 287
269 273 277 278 281 283 285 291 290 289 290 290 287 286 289 291 293 294 291 283 273 265 264 266 265 265 270 271 270 270 266 264 264 265 265 263 262 262 267 270 272 275 275
274 276 278 280 282 285 287 286 284 282 283 283 281 282 284 285 285 286 287 290 289 282 273 267 266 265 265 267 270 272 275 272 269 269 267 266 264 261 259 259 260 262 268
274 274 275 278 280 280 281 283 283 283 282 281 281 279 275 277 280 281 282 282 281 283 281 277 270 267 267 267 269 271 271 271 273 271 269 269 268 266 263 259 256 258 261
270 272 274 274 275 276 277 276 276 275 275 274 275 276 274 271 270 274 276 278 277 274 274 273 269 267 268 268 265 274 279 278 269 269 270 269 269 270 267 265 262 259 259
272 273 274 274 275 275 275 275 275 275 276 276 275 274 273 271 269 268 270 271 272 272 270 266 268 267 266 261 267 274 277 284 281 268 268 271 271 270 271 272 270 268 265
268 269 271 273 274 276 278 278 278 277 275 275 275 274 274 273 271 268 267 270 269 268 266 266 263 264 267 262 269 272 277 282 287 284 272 269 270 270 269 272 273 273 270
270 271 272 273 276 278 279 280 281 282 281 279 277 275 273 270 268 268 268 268 267 267 266 264 261 260 262 264 267 271 273 278 283 283 287 275 267 268 269 269 271 271 272
273 274 274 274 275 276 278 278 279 279 279 279 279 278 278 276 274 270 265 265 266 265 264 266 266 263 260 260 264 269 271 273 276 281 284 283 268 264 264 267 267 269 272
273 274 275 275 274 275 277 277 277 277 278 278 277 276 276 277 277 276 273 269 266 265 265 264 264 265 264 262 261 264 268 270 271 274 277 280 275 266 263 262 264 268 272
273 275 276 277 277 276 276 276 276 276 275 275 276 276 275 273 273 273 273 272 269 267 266 265 264 263 263 263 262 262 263 265 268 269 271 275 276 268 264 265 263 263 267
272 273 274 276 279 280 281 281 280 280 279 278 278 277 277 276 276 273 271 271 270 268 268 266 263 263 262 263 262 261 263 263 264 267 269 269 269 265 264 265 264 261 262
270 273 276 278 279 280 282 282 283 283 283 283 282 281 278 276 275 274 274 272 270 268 266 266 266 265 263 261 263 262 260 262 262 261 262 266 268 260 260 263 267 266 262
274 276 278 279 280 281 282 283 283 283 282 282 282 281 280 279 276 273 271 270 269 268 266 262 263 263 263 262 260 261 262 261 260 261 261 263 263 259 253 257 267 264 269
280 282 283 283 283 282 283 283 282 283 282 282 281 280 278 277 275 274 272 269 266 264 264 264 259 259 261 261 262 261 260 261 262 260 262 258 266 261 256 251 257 260 256
285 285 284 284 284 284 284 285 284 284 284 282 279 277 275 273 271 268 266 265 264 263 261 260 260 258 256 258 259 260 260 260 261 262 265 262 261 264 269 250 251 260 261
283 284 285 286 285 285 285 285 284 283 282 282 284 284 283 279 275 270 267 264 262 260 259 258 256 257 256 255 256 258 259 262 261 258 261 267 261 262 261 262 255 260 271
283 283 282 282 282 282 283 283 283 285 289 289 289 289 289 286 280 274 269 264 261 261 260 259 257 254 253 255 254 255 257 259 261 261 260 261 265 264 264 266 265 264 265
282 282 281 281 282 284 286 288 290 292 295 300 302 300 298 294 283 273 267 265 262 262 258 255 256 256 254 252 253 254 255 256 258 261 260 262 263 262 264 262 262 263 264
281 283 284 286 290 291 285 288 293 301 306 309 316 309 301 301 298 276 269 261 257 257 256 253 251 250 252 252 252 253 254 255 257 259 261 260 261 263 261 261 262 263 267
Height
5889 5888 5888 5888 5888 5888 5888 5888 5888 5888 5888 5887 5887 5887 5887 5886 5886 5885 5885 5884 5883 5882 5881 5881 5880 5880 5879 5879 5879 5878 5878 5878 5877 5876 5875 5875 5874 5874 5873 5872 5870 5869 5868
5890 5889 5889 5889 5888 5888 5887 5887 5887 5887 5887 5886 5885 5885 5885 5885 5885 5884 5884 5884 5883 5882 5881 5880 5879 5879 5879 5878 5878 5877 5877 5877 5876 5876 5875 5874 5874 5873 5872 5870 5869 5869 5868
5889 5889 5888 5889 5888 5888 5887 5887 5887 5886 5885 5885 5885 5884 5884 5884 5883 5883 5882 5882 5882 5881 5880 5879 5878 5878 5877 5877 5877 5877 5876 5876 5875 5875 5874 5874 5872 5872 5871 5870 5869 5868 5867
5889 5888 5887 5888 5888 5888 5887 5887 5887 5886 5885 5884 5883 5883 5883 5883 5882 5882 5881 5880 5880 5879 5879 5879 5878 5877 5876 5876 5875 5875 5875 5874 5874 5873 5874 5873 5872 5871 5871 5869 5868 5867 5866
5887 5887 5887 5887 5888 5887 5887 5886 5886 5886 5885 5884 5883 5881 5881 5881 5881 5880 5880 5880 5879 5878 5878 5877 5877 5876 5875 5874 5874 5874 5873 5873 5872 5872 5872 5871 5870 5869 5869 5869 5867 5866 5864
5887 5886 5886 5886 5886 5886 5886 5885 5884 5884 5884 5884 5883 5882 5880 5879 5879 5878 5878 5878 5878 5877 5876 5876 5875 5874 5873 5872 5872 5872 5872 5871 5870 5870 5869 5869 5869 5868 5867 5867 5866 5865 5863
5885 5885 5885 5884 5884 5885 5885 5884 5883 5882 5882 5883 5882 5881 5880 5879 5878 5877 5876 5875 5875 5875 5874 5874 5873 5873 5872 5871 5870 5869 5869 5868 5868 5867 5866 5866 5866 5866 5865 5865 5864 5863 5862
5883 5882 5882 5882 5882 5882 5882 5881 5881 5881 5880 5881 5880 5879 5878 5878 5877 5876 5874 5873 5872 5871 5871 5871 5871 5870 5869 5869 5868 5867 5866 5865 5865 5865 5864 5863 5863 5863 5862 5861 5861 5860 5859
5879 5880 5879 5879 5879 5879 5879 5878 5878 5877 5877 5876 5877 5877 5876 5875 5874 5873 5872 5871 5870 5869 5868 5867 5866 5866 5866 5865 5865 5864 5864 5863 5862 5861 5861 5860 5860 5859 5859 5858 5857 5857 5856
5876 5876 5876 5875 5875 5875 5875 5875 5874 5874 5873 5873 5873 5873 5872 5871 5870 5869 5868 5867 5866 5865 5864 5864 5863 5862 5862 5861 5861 5860 5860 5859 5858 5857 5857 5856 5856 5855 5854 5854 5853 5853 5852
5871 5871 5871 5871 5871 5871 5870 5870 5869 5869 5868 5868 5867 5867 5867 5867 5866 5865 5864 5863 5862 5861 5860 5859 5858 5858 5857 5857 5857 5856 5855 5854 5853 5853 5852 5852 5851 5851 5850 5850 5849 5849 5849
5866 5866 5865 5865 5865 5864 5864 5864 5863 5863 5863 5862 5863 5862 5861 5861 5860 5860 5858 5857 5857 5856 5856 5855 5855 5854 5853 5852 5852 5852 5851 5849 5848 5847 5847 5847 5847 5847 5846 5846 5845 5845 5845
5859 5859 5859 5859 5859 5858 5858 5857 5857 5857 5856 5856 5856 5856 5855 5855 5854 5853 5853 5852 5851 5850 5850 5850 5849 5849 5848 5848 5847 5847 5846 5845 5843 5842 5842 5841 5841 5842 5842 5841 5841 5840 5840
5854 5854 5854 5853 5853 5853 5852 5852 5851 5850 5849 5849 5848 5848 5847 5847 5846 5847 5846 5845 5844 5844 5843 5842 5842 5842 5842 5842 5841 5841 5840 5840 5839 5837 5836 5836 5835 5836 5836 5836 5836 5835 5835
5849 5849 5849 5849 5848 5848 5847 5846 5845 5844 5843 5843 5842 5841 5841 5839 5839 5838 5838 5837 5836 5835 5835 5835 5835 5835 5835 5835 5834 5834 5833 5833 5832 5832 5830 5829 5828 5829 5829 5830 5830 5830 5830
5844 5843 5843 5843 5842 5842 5841 5840 5839 5838 5836 5835 5834 5833 5832 5831 5831 5830 5829 5829 5828 5828 5827 5827 5826 5827 5827 5828 5827 5826 5826 5826 5825 5824 5824 5823 5822 5822 5822 5822 5823 5823 5824
5837 5836 5835 5834 5834 5834 5833 5832 5831 5830 5829 5827 5825 5823 5822 5822 5821 5820 5820 5820 5819 5818 5818 5818 5817 5817 5817 5818 5820 5819 5817 5817 5817 5816 5816 5815 5815 5815 5815 5816 5815 5815 5816
5830 5829 5828 5826 5825 5824 5823 5822 5821 5819 5818 5816 5815 5814 5813 5812 5811 5811 5810 5809 5808 5809 5808 5807 5807 5807 5808 5808 5810 5811 5810 5809 5809 5808 5808 5808 5808 5807 5807 5808 5808 5807 5807
5822 5820 5819 5818 5817 5816 5814 5812 5811 5809 5806 5804 5803 5801 5800 5799 5799 5798 5797 5797 5797 5796 5798 5797 5797 5798 5797 5798 5799 5799 5800 5800 5801 5800 5799 5800 5800 5800 5800 5800 5801 5802 5799
5814 5813 5812 5810 5808 5806 5805 5803 5800 5798 5795 5793 5791 5787 5785 5783 5782 5782 5783 5782 5781 5782 5783 5785 5785 5786 5787 5788 5787 5788 5788 5789 5790 5791 5790 5790 5791 5790 5789 5791 5793 5795 5794
5805 5803 5801 5800 5798 5796 5793 5791 5788 5786 5782 5779 5777 5774 5771 5768 5766 5764 5764 5765 5766 5767 5767 5768 5770 5772 5775 5776 5775 5777 5777 5778 5778 5780 5779 5782 5772 5781 5780 5780 5783 5786 5785
5793 5791 5789 5787 5785 5783 5781 5778 5776 5773 5770 5766 5763 5759 5755 5752 5749 5746 5745 5744 5745 5747 5750 5751 5752 5756 5760 5762 5763 5763 5764 5766 5768 5771 5768 5772 5774 5774 5775 5772 5768 5775 5776
5784 5781 5778 5775 5773 5771 5769 5767 5765 5761 5758 5754 5750 5745 5739 5733 5729 5726 5724 5723 5724 5725 5730 5732 5735 5738 5742 5747 5749 5750 5751 5754 5755 5758 5760 5757 5762 5764 5767 5767 5764 5766 5764
5772 5769 5767 5764 5763 5761 5759 5756 5753 5750 5746 5741 5736 5730 5723 5715 5707 5701 5699 5699 5701 5704 5709 5712 5716 5721 5725 5731 5733 5737 5738 5740 5741 5743 5747 5749 5750 5753 5754 5755 5755 5757 5757
5761 5759 5756 5754 5752 5751 5748 5744 5741 5739 5735 5730 5724 5714 5702 5690 5681 5676 5675 5675 5678 5682 5686 5690 5696 5702 5707 5713 5718 5720 5724 5726 5727 5728 5734 5736 5737 5741 5743 5745 5747 5747 5746
5753 5750 5748 5745 5742 5740 5737 5735 5734 5731 5727 5722 5715 5702 5688 5676 5663 5654 5652 5651 5654 5659 5664 5670 5675 5682 5689 5695 5701 5705 5709 5712 5714 5715 5717 5722 5725 5727 5730 5733 5734 5734 5734